Regional Weather Roundup
Issued by NWS

Home | Current Version | Previous Version | Text Only | Print | Product List | Glossary On
Versions: 1 2 3 4 5 6 7 8 9 10 11 12 13 14 15 16 17 18 19 20 21 22 23 24 25 26 27 28 29 30 31 32 33 34 35 36 37 38 39 40 41 42 43 44 45 46 47 48 49 50
000
ASUS43 KMPX 302101
RWRMN
WEATHER ROUNDUP FOR MINNESOTA
NATIONAL WEATHER SERVICE TWIN CITIES/CHANHASSEN MN
400 PM CDT SAT AUG 30 2014


NOTE: "FAIR" INDICATES FEW OR NO CLOUDS BELOW 12,000 FEET WITH NO
SIGNIFICANT WEATHER AND/OR OBSTRUCTIONS TO VISIBILITY. N/A MEANS
CURRENT SKY AND/OR WEATHER CONDITIONS ARE NOT AVAILABLE.

MNZ060>063-068>070-302200-
   Twin Cities Metro

CITY           SKY/WX    TMP DP  RH WIND       PRES   REMARKS
TWIN CITIES    PTSUNNY   75  61  61 N8        29.85F
ST PAUL        PTSUNNY   74  62  66 N9        29.85F
CRYSTAL        CLOUDY    77  62  59 E7        29.84S
BLAINE         CLOUDY    73  63  68 NE6       29.86S
LAKEVILLE      PTSUNNY   73  63  68 NE3       29.85F
EDEN PRAIRIE   MOSUNNY   79  63  57 N5        29.84F
SOUTH ST PAUL  MOSUNNY   74  61  62 N8        29.85S
LAKE ELMO      CLOUDY    72  63  73 NE7       29.87F
$$
MNZ001>005-007-008-013>017-022>024-027-028-302200-
   Northwest Minnesota

CITY           SKY/WX    TMP DP  RH WIND       PRES   REMARKS
BEMIDJI        CLOUDY    64  57  76 E3        29.89F
HALLOCK        SUNNY     72  48  43 SE5       29.85F
ROSEAU         SUNNY     70  55  60 E5        29.88F
WARROAD        SUNNY     66  54  63 NE9       29.90F
THIEF RVR FALL SUNNY     70  52  52 CALM      29.87F
CROOKSTON      SUNNY     72  54  53 NE6       29.85F
FOSSTON        MOSUNNY   70  57  64 CALM      29.87F
DETROIT LAKES  CLOUDY    64  59  82 SE6       29.88F
MOORHEAD       CLOUDY    70  61  73 CALM      29.87S
PARK RAPIDS    CLOUDY    63  57  81 CALM      29.88F
MAHNOMEN       MOCLDY    64  57  79 E6        29.87F
$$
MNZ006-009>011-018-025>026-302200-
   North Central Minnesota

CITY           SKY/WX    TMP DP  RH WIND       PRES   REMARKS
BAUDETTE       SUNNY     70  55  59 N8        29.88F
FLAG ISLAND    SUNNY     66  52  59 CALM      29.89S
INTL FALLS     SUNNY     70  52  52 N7        29.88F
WASKISH        SUNNY     70  57  64 CALM      29.88F
BIG FORK       PTSUNNY   66  57  72 E3        29.90S
LONGVILLE      CLOUDY    64  61  88 CALM      29.88F
GRAND RAPIDS   CLOUDY    64  57  77 CALM      29.89F
CRANE LAKE     CLOUDY    64  54  68 NE3       29.91S
ORR            CLOUDY    64  54  68 CALM      29.88F
COOK           CLOUDY    63  55  77 NE3       29.90S
WALKER         CLOUDY    63  58  84 CALM      29.88F
$$
MNZ012-019>021-037-302200-
   Northeast Minnesota

CITY           SKY/WX    TMP DP  RH WIND       PRES   REMARKS
DULUTH         LGT RAIN  63  59  87 E8        29.88F
ELY            CLOUDY    63  55  77 CALM      29.90S
HIBBING        CLOUDY    66  57  72 E3        29.89S
EVELETH        CLOUDY    63  55  77 N5        29.90S
DULUTH HARBOR  CLOUDY    64  63  94 NE9       29.88S
TWO HARBORS    CLOUDY    61  55  82 E5        29.88R HAZE
SILVER BAY     DRIZZLE   59  59 100 E5        29.88R
GRAND MARAIS     N/A     63  58  83 CALM      29.87S
G MARAIS ARPRT CLOUDY    61  54  77 N7        29.91S
$$
MNZ029>031-032-039>041-046>048-054>057-064-302200-
   West Central Minnesota

CITY           SKY/WX    TMP DP  RH WIND       PRES   REMARKS
FERGUS FALLS   CLOUDY    66  61  82 CALM      29.86F
WHEATON        CLOUDY    63  57  82 CALM      29.89F
MORRIS         SUNNY     66  61  82 CALM      29.87F
ALEXANDRIA     CLOUDY    68  61  78 NW3       29.89S
ELBOW LAKE     CLOUDY    64  60  84 CALM      29.87F
WADENA         CLOUDY    64  59  82 CALM      29.88S
GLENWOOD       MOSUNNY   70  63  78 W5        29.88F
APPLETON       CLOUDY    68  61  77 SW3       29.87F
BENSON         CLOUDY    68  63  83 CALM      29.88F
ORTONVILLE     CLOUDY    66  57  72 CALM      29.88F
MADISON        SUNNY     70  61  73 CALM      29.88F
WILLMAR        FAIR      72  64  78 W8        29.89S
$$
MNZ033>034-036-042>043-049>051-058-059-302200-
   Central Minnesota

CITY           SKY/WX    TMP DP  RH WIND       PRES   REMARKS
ST CLOUD       CLOUDY    73  63  70 E3        29.85F
SAUK CENTRE    MOCLDY    70  63  78 NW5       29.87F
PAYNESVILLE    HVY RAIN  69  62  80 N3        29.86F
AITKIN         CLOUDY    72  63  73 CALM      29.86F
PINE RIVER     CLOUDY    64  61  88 CALM      29.91F
BRAINERD       CLOUDY    68  62  81 NE3       29.87F
STAPLES        CLOUDY    63  61  94 CALM      29.89R
LONG PRAIRIE   CLOUDY    64  61  88 CALM      29.89S
LITTLE FALLS   CLOUDY    70  61  73 CALM      29.86F
LITCHFIELD     MOSUNNY   75  68  78 NE5       29.86F
BUFFALO        PTSUNNY   75  62  63 NE5       29.86F
MAPLE LAKE     HVY RAIN  73  65  78 CALM      29.87S
$$
MNZ037-044-045-052-053-302200-
   East Central Minnesota

CITY           SKY/WX    TMP DP  RH WIND       PRES   REMARKS
PRINCETON      PTSUNNY   73  63  68 N3        29.86S
MORA           MOSUNNY   70  59  68 CALM      29.88R
CAMBRIDGE      MOSUNNY   75  61  60 E5        29.84F
RUSH CITY      CLOUDY    71  60  68 CALM      29.86F
MOOSE LAKE     CLOUDY    70  61  73 CALM      29.85F
HINCKLEY       CLOUDY    72  63  73 E3        29.86S
CLOQUET        DRIZZLE   64  61  88 E6        29.88S
MCGREGOR       PTSUNNY   70  61  73 NE3       29.87F
$$
MNZ071>073-080-081-089-090-097-098-302200-
   Southwest Minnesota

CITY           SKY/WX    TMP DP  RH WIND       PRES   REMARKS
MONTEVIDEO     CLOUDY    68  68 100 W6        29.89F
GRANITE FALLS  CLOUDY    66  63  88 W6        29.90F
CANBY          MOSUNNY   70  62  75 CALM      29.89F
MARSHALL       MOSUNNY   70  61  73 NW6       29.88F
REDWOOD FALLS  CLOUDY    69  63  81 W7        29.88S
OLIVIA         CLOUDY    70  63  78 NW5       29.87F
PIPESTONE      PTSUNNY   70  61  73 CALM      29.90F
WINDOM         SUNNY     73  63  68 CALM      29.89F
WORTHINGTON    MOSUNNY   72  61  68 NW5       29.91S
JACKSON        PTSUNNY   75  61  60 W3        29.89F
TRACY          MOSUNNY   72  64  75 CALM      29.89F
SLAYTON        CLOUDY    71  62  73 CALM      29.91S
$$
MNZ065>067-074>077-082>085-091>093-302200-
   South Central Minnesota

CITY           SKY/WX    TMP DP  RH WIND       PRES   REMARKS
MANKATO        PTSUNNY   73  63  68 W10       29.86F
NEW ULM        MOSUNNY   72  66  83 W7        29.87F
ST JAMES       MOSUNNY   77  63  61 NW5       29.88F
FAIRMONT       PTSUNNY   72  61  68 N5        29.88F
GLENCOE        CLOUDY    74  65  72 SW10      29.85S
FARIBAULT      MOSUNNY   79  64  61 SW3       29.86S
OWATONNA       MOSUNNY   75  64  69 W6        29.86F
WASECA         CLOUDY    72  61  68 W6        29.88F
ALBERT LEA     MOSUNNY   75  66  73 W6        29.87F
$$
MNZ078>079-086>088-094>096-302200-
   Southeast Minnesota

CITY           SKY/WX    TMP DP  RH WIND       PRES   REMARKS
ROCHESTER      MOSUNNY   76  63  64 VRB7      29.87F
RED WING       PTSUNNY   73  63  68 N5        29.84F
STANTON        PTSUNNY   77  63  62 N6        29.83F
DODGE CENTER   MOSUNNY   75  64  69 N3        29.87S
WINONA         CLOUDY    73  64  73 N8        29.85S
AUSTIN         PTSUNNY   75  64  69 NW10      29.86S
PRESTON        MOSUNNY   75  68  78 CALM      29.87S
$$
ABBREVIATIONS USED IN REMARKS
   TC - TEMPERATURES IN CELSIUS
  WCI - WIND CHILL INDEX
   HX - HEAT INDEX
  VSB - VISIBILITY
$$



USA.gov is the U.S. government's official web portal to all federal, state and local government web resources and services.